FENGYUN 1C DEB

Satellite information

Favourite Embed

Satellite Type and Status

DEBRISIN ORBIT

Key statistics

Satellite FENGYUN 1C DEB at a glance.

Uptime

9494

Days in orbit

Revolutions

≈ 14.4

Per day

Orbit

SSO

Sun Synchronous Orbit

Inclination

98.9

Latest

Satellite identification and parameters

Extended collection of information and parameters for FENGYUN 1C DEB.

Object identification

Identified? True

Debris? True

Object name: FENGYUN 1C DEB

International designator: 1999-025DKH

Object number (NORAD): 35105

Object ID (CCSDS): 35105

Country: PEOPLES REPUBLIC OF CHINA (PRC)

Current information (Y/N): Y

RCS size: SMALL

Orbital parameters

Period: 99.673 minutes

Inclination: 98.9193 deg

SMA: 7121.06 km

Apoapsis: 823.461 km

Periapsis: 662.39 km

RAAN: 95.3657 deg

Eccentricy: 0.0113095

Argument of periapsis: 354.2601 deg

Mean anomaly: 5.7284 deg

Mean motion: 14.44726966 rev/day

Mean motion (dot): 0.0000223 rev/day2

B* drag term: 0.00060834 1/REarth

Two-line elements (TLE)

Creation date: May 6, 2025, 3:54 a.m.

Reference frame: TEME

Reference center: EARTH

Epoch: May 5, 2025, 3:21 p.m. UTC

TLE line 0: 0 FENGYUN 1C DEB

TLE line 1: 1 35105U 99025DKH 25125.64012002 .00002230 00000-0 60834-3 0 9990

TLE line 2: 2 35105 98.9193 95.3657 0113095 354.2601 5.7284 14.44726966913008

Live tracking on map

Real-time ground track for satellite FENGYUN 1C DEB.

In-orbit conjunctions

A list of the most updated potential collisions computed for object FENGYUN 1C DEB.

Target Orbit TCA Probability of collision Miss distance Type
SL-8 R/B LEO 2025-02-01 01:08:14 0.0001583554 574.0 (m) ROCKET BODY
NOAA 16 DEB SSO 2024-09-28 11:37:51 0.0001811282 141.0 (m) DEBRIS

Associated space launch

Chinese polar orbiting meteorological satellite

FENGYUN 1C DEB was lifted into orbit during the mission ‘Long March 4B | Feng Yun 1C’, on board a Long March 4B space rocket.

The launch took place on May 10, 1999, 1:33 a.m. from Launch Complex 7.

For more information about the launch, click the button.

Launch to space Long March 4B | Feng Yun 1C
Long March 4B | Feng Yun 1C

Agency: N/A

Status: Launch Successful

Launch date: May 10, 1999, 1:33 a.m. UTC

Rocket: Long March 4B

Launch pad: Launch Complex 7

Location: Taiyuan Satellite Launch Center, People's Republic of China

...

Latest news about this satellite

There are no fresh news available about this satellite. Check back as we update our databases every day.


Newsletter sign-up

Weekly statistics, charts and insights to help you stay on top of the space industry.